| time (UTC) | temp F | wind direction | speed knots | gust knots | rain 1hr in | rain 24hr in | rain mn in | humidity % | barometer mb |
| 20260504023709 | 37 | 260 | 0.0 | 0.0 | 0.00 | 0.00 | 0.00 | 75 | 1009.7 |
| 20260504022710 | 37 | 260 | 0.0 | 0.0 | 0.00 | 0.00 | 0.00 | 75 | 1009.6 |
| 20260504021707 | 38 | 260 | 0.0 | 0.0 | 0.00 | 0.00 | 0.00 | 73 | 1009.6 |
| 20260504021145 | 38 | 260 | 0.0 | 0.0 | 0.00 | 0.00 | 0.00 | 72 | 1009.5 |
| 20260504015708 | 38 | 260 | 0.0 | 0.0 | 0.00 | 0.00 | 0.00 | 72 | 1009.4 |
| 20260504014707 | 39 | 260 | 0.0 | 0.0 | 0.00 | 0.00 | 0.00 | 69 | 1009.4 |
| 20260504013708 | 40 | 260 | 0.0 | 0.0 | 0.00 | 0.00 | 0.00 | 69 | 1009.2 |
| 20260504012708 | 40 | 260 | 0.0 | 0.0 | 0.00 | 0.00 | 0.00 | 67 | 1009.2 |
| 20260504012639 | 41 | 260 | 0.0 | 0.0 | 0.00 | 0.00 | 0.00 | 65 | 1009.2 |
| 20260504010653 | 42 | 260 | 0.0 | 0.0 | 0.00 | 0.00 | 0.00 | 63 | 1009.0 |
| 20260504010126 | 43 | 260 | 0.0 | 0.0 | 0.00 | 0.00 | 0.00 | 61 | 1008.7 |
| 20260504004655 | 44 | 260 | 0.0 | 0.0 | 0.00 | 0.01 | 0.00 | 60 | 1008.7 |
| 20260504003653 | 44 | 260 | 0.0 | 0.0 | 0.00 | 0.01 | 0.00 | 59 | 1008.6 |
| 20260504002653 | 45 | 260 | 0.0 | 0.0 | 0.00 | 0.01 | 0.00 | 56 | 1008.3 |
| 20260504002136 | 46 | 263 | 0.0 | 0.0 | 0.00 | 0.01 | 0.00 | 55 | 1008.3 |
| 20260504000651 | 47 | 263 | 0.0 | 0.0 | 0.00 | 0.01 | 0.00 | 53 | 1008.2 |
| 20260503235651 | 47 | 263 | 0.0 | 0.0 | 0.00 | 0.01 | 0.00 | 52 | 1008.2 |
| 20260503234651 | 48 | 263 | 0.0 | 0.0 | 0.00 | 0.01 | 0.00 | 51 | 1008.2 |
| 20260503233651 | 49 | 263 | 0.0 | 1.7 | 0.00 | 0.01 | 0.00 | 52 | 1008.0 |
| 20260503232652 | 49 | 263 | 0.9 | 1.7 | 0.00 | 0.01 | 0.00 | 51 | 1007.9 |
| 20260503231641 | 49 | 264 | 0.0 | 2.6 | 0.00 | 0.01 | 0.00 | 51 | 1007.9 |
| 20260503230641 | 50 | 268 | 0.9 | 2.6 | 0.00 | 0.01 | 0.00 | 49 | 1007.7 |
| 20260503225641 | 50 | 310 | 1.7 | 6.1 | 0.00 | 0.01 | 0.00 | 49 | 1007.6 |
| 20260503224641 | 50 | 265 | 1.7 | 2.6 | 0.00 | 0.01 | 0.00 | 48 | 1007.6 |
| 20260503223641 | 50 | 296 | 2.6 | 5.2 | 0.00 | 0.01 | 0.00 | 47 | 1007.5 |
| 20260503222639 | 51 | 301 | 2.6 | 7.0 | 0.00 | 0.01 | 0.00 | 47 | 1007.3 |
| 20260503221640 | 51 | 136 | 1.7 | 6.1 | 0.00 | 0.01 | 0.00 | 47 | 1007.3 |
| 20260503220639 | 51 | 54 | 2.6 | 5.2 | 0.00 | 0.01 | 0.00 | 44 | 1007.1 |
| 20260503215639 | 51 | 310 | 2.6 | 7.0 | 0.00 | 0.01 | 0.00 | 45 | 1007.0 |
| 20260503214639 | 51 | 47 | 2.6 | 7.0 | 0.00 | 0.01 | 0.00 | 45 | 1007.0 |
| 20260503213640 | 52 | 284 | 2.6 | 7.0 | 0.00 | 0.01 | 0.00 | 45 | 1007.0 |
| 20260503212630 | 52 | 108 | 2.6 | 10.4 | 0.00 | 0.01 | 0.00 | 47 | 1006.7 |
| 20260503211629 | 52 | 321 | 2.6 | 7.8 | 0.00 | 0.02 | 0.00 | 48 | 1006.7 |
| 20260503210629 | 52 | 190 | 1.7 | 5.2 | 0.00 | 0.03 | 0.00 | 45 | 1006.5 |
| 20260503205629 | 52 | 279 | 2.6 | 7.0 | 0.00 | 0.03 | 0.00 | 49 | 1006.4 |
| 20260503204627 | 52 | 248 | 1.7 | 6.1 | 0.00 | 0.04 | 0.00 | 50 | 1006.4 |
| 20260503203627 | 52 | 287 | 1.7 | 4.3 | 0.00 | 0.05 | 0.00 | 48 | 1006.1 |
| 20260503202627 | 52 | 198 | 1.7 | 5.2 | 0.00 | 0.05 | 0.00 | 47 | 1006.0 |
| 20260503201627 | 53 | 54 | 2.6 | 7.0 | 0.00 | 0.05 | 0.00 | 46 | 1006.0 |
| 20260503200626 | 53 | 301 | 3.5 | 7.8 | 0.00 | 0.05 | 0.00 | 46 | 1005.9 |
| 20260503195627 | 53 | 291 | 1.7 | 5.2 | 0.00 | 0.05 | 0.00 | 46 | 1006.0 |
| 20260503194626 | 53 | 262 | 2.6 | 7.8 | 0.00 | 0.05 | 0.00 | 47 | 1006.0 |
| 20260503193626 | 53 | 311 | 2.6 | 7.0 | 0.00 | 0.05 | 0.00 | 49 | 1006.0 |
| 20260503192625 | 52 | 301 | 2.6 | 5.2 | 0.00 | 0.05 | 0.00 | 50 | 1006.0 |
| 20260503191624 | 52 | 103 | 2.6 | 5.2 | 0.00 | 0.05 | 0.00 | 52 | 1006.0 |
| 20260503190624 | 51 | 285 | 1.7 | 6.1 | 0.00 | 0.05 | 0.00 | 52 | 1006.0 |
| 20260503190103 | 51 | 100 | 1.7 | 8.7 | 0.00 | 0.05 | 0.00 | 55 | 1006.1 |
| 20260503184625 | 51 | 35 | 1.7 | 6.1 | 0.00 | 0.05 | 0.00 | 55 | 1006.1 |
| 20260503183625 | 52 | 28 | 1.7 | 6.1 | 0.00 | 0.05 | 0.00 | 55 | 1006.0 |
| 20260503182625 | 52 | 23 | 2.6 | 7.0 | 0.00 | 0.05 | 0.00 | 54 | 1006.0 |
| 20260503181625 | 52 | 356 | 2.6 | 9.6 | 0.00 | 0.05 | 0.00 | 53 | 1006.0 |
| 20260503180624 | 52 | 15 | 2.6 | 7.8 | 0.00 | 0.05 | 0.00 | 54 | 1006.0 |
| 20260503175626 | 51 | 2 | 2.6 | 8.7 | 0.00 | 0.05 | 0.00 | 55 | 1006.0 |
| 20260503174625 | 51 | 14 | 4.3 | 10.4 | 0.00 | 0.05 | 0.00 | 56 | 1006.0 |
| 20260503173624 | 50 | 340 | 2.6 | 7.0 | 0.00 | 0.05 | 0.00 | 58 | 1006.1 |
| 20260503172623 | 50 | 332 | 2.6 | 6.1 | 0.00 | 0.05 | 0.00 | 59 | 1006.4 |
| 20260503172107 | 50 | 143 | 2.6 | 7.0 | 0.00 | 0.05 | 0.00 | 59 | 1006.4 |
| 20260503170624 | 51 | 310 | 3.5 | 13.0 | 0.00 | 0.05 | 0.00 | 59 | 1006.0 |
| 20260503131014 | 43 | 18 | 2.6 | 6.1 | 0.00 | 0.05 | 0.00 | 84 | 1006.9 |
| 20260503110534 | 38 | 85 | 0.0 | 1.7 | 0.00 | 0.22 | 0.00 | 92 | 1007.1 |
| 20260503080517 | 40 | 87 | 0.0 | 0.0 | 0.00 | 0.24 | 0.00 | 91 | 1008.1 |
| 20260503072505 | 40 | 87 | 0.0 | 0.0 | 0.00 | 0.24 | 0.00 | 91 | 1008.2 |
| 20260503071929 | 40 | 87 | 0.0 | 0.0 | 0.00 | 0.24 | 0.00 | 91 | 1008.6 |
| 20260503070450 | 40 | 87 | 0.0 | 0.0 | 0.00 | 0.24 | 0.00 | 91 | 1008.6 |
| 20260503054439 | 41 | 87 | 0.0 | 0.0 | 0.00 | 0.24 | 0.00 | 90 | 1009.5 |
| 20260503053440 | 41 | 87 | 0.0 | 0.0 | 0.00 | 0.24 | 0.00 | 90 | 1009.5 |
| 20260503052437 | 41 | 87 | 0.0 | 0.0 | 0.00 | 0.24 | 0.00 | 91 | 1009.7 |
| 20260503051917 | 41 | 87 | 0.0 | 0.0 | 0.00 | 0.24 | 0.00 | 90 | 1009.8 |
| 20260503050437 | 42 | 87 | 0.0 | 0.0 | 0.00 | 0.24 | 0.00 | 90 | 1009.8 |
| 20260503045435 | 42 | 87 | 0.0 | 0.0 | 0.00 | 0.24 | 0.00 | 90 | 1009.9 |
| 20260503044435 | 42 | 87 | 0.0 | 0.0 | 0.00 | 0.24 | 0.00 | 90 | 1010.2 |
| 20260503043435 | 42 | 87 | 0.0 | 0.0 | 0.00 | 0.24 | 0.00 | 90 | 1010.2 |
| 20260503042436 | 42 | 87 | 0.0 | 0.0 | 0.00 | 0.24 | 0.00 | 90 | 1010.3 |
| 20260503041427 | 42 | 87 | 0.0 | 0.0 | 0.00 | 0.24 | 0.00 | 90 | 1010.3 |
| 20260503040425 | 43 | 87 | 0.0 | 0.0 | 0.00 | 0.24 | 0.00 | 90 | 1010.3 |
| 20260503035425 | 43 | 87 | 0.0 | 0.0 | 0.00 | 0.24 | 0.24 | 90 | 1010.3 |
| 20260503034426 | 43 | 87 | 0.0 | 0.0 | 0.00 | 0.24 | 0.24 | 90 | 1010.5 |
| 20260503033425 | 43 | 87 | 0.0 | 0.0 | 0.00 | 0.24 | 0.24 | 90 | 1010.5 |
| 20260503032426 | 43 | 87 | 0.0 | 0.0 | 0.00 | 0.24 | 0.24 | 90 | 1010.6 |
| 20260503031421 | 44 | 87 | 0.0 | 0.0 | 0.00 | 0.24 | 0.24 | 90 | 1010.3 |
| 20260503030852 | 44 | 87 | 0.0 | 0.0 | 0.00 | 0.24 | 0.24 | 90 | 1010.3 |
| 20260503025421 | 44 | 87 | 0.0 | 0.0 | 0.00 | 0.24 | 0.24 | 90 | 1010.3 |
| 20260503025340 | 44 | 87 | 0.0 | 0.0 | 0.00 | 0.24 | 0.24 | 90 | 1010.3 |